{"data":{"norad_id":43252,"epoch":"2026-05-25T04:21:31.396896Z","epoch_age_seconds":55406,"freshness":"FRESH","line1":"1 43252U 18030D   26145.18161339  .00000219  00000+0  71017-4 0  9999","line2":"2 43252  86.3939 300.0557 0002176  90.4144 269.7301 14.34219055426895","mean_motion":14.34219055,"eccentricity":0.0002176,"inclination_deg":86.3939,"raan_deg":300.0557,"arg_perigee_deg":90.4144,"mean_anomaly_deg":269.7301,"bstar":7.1017e-5,"rev_number":42689,"period_min":100.40307266731,"perigee_km":776.105711589,"apogee_km":779.2199156679,"semimajor_km":7155.7998136284,"source":"CELESTRAK","updated_at":"2026-05-25T13:38:14.807774Z"}}